Weather History for Cold Bay, AK

Change the Weather History Date:

Tuesday, February 19, 2013

  Actual Average Record
Temperature  
Mean Temperature 33 °F 29 °F  
Max Temperature 38 °F 34 °F 43 °F (1957)
Min Temperature 28 °F 25 °F -1 °F (1974)
Degree Days  
Heating Degree Days 32 36  
Month to date heating degree days 654 689  
Since 1 July heating degree days 6071 5905  
Cooling Degree Days 0    
Month to date cooling degree days 0  
Year to date cooling degree days 0  
Moisture  
Dew Point 29 °F    
Average Humidity 85    
Maximum Humidity 93    
Minimum Humidity 75    
Precipitation  
Precipitation 0.15 in 0.11 in 0.74 in (1974)
Month to date precipitation 1.75 2.02  
Year to date precipitation 5.34 5.18  
Snow  
Snow 0.50 in 0.40 in 7.40 in (1974)
Month to date snowfall 7.1 8.9  
Since 1 July snowfall 47.8 48.2  
Snow Depth T in    
Sea Level Pressure  
Sea Level Pressure 29.06 in    
Wind  
Wind Speed 21 mph (WSW)    
Max Wind Speed 46 mph    
Max Gust Speed 54 mph    
Visibility 6 miles    
Events Fog , Rain , Snow    
T = Trace of Precipitation, MM = Missing Value Source: NWS Daily Summary

Daily Weather History Graph

Daily Weather History Graph

Search for Another Location

Airport:

Trip Planner

Search our weather history database for the weather conditions in past years. The results will help you decide how hot, cold, wet, or windy it might be!

Date:

Astronomy

Feb. 19, 2013 Rise Set
Actual Time 9:03 AM AKST 7:06 PM AKST
Civil Twilight 8:26 AM AKST 7:44 PM AKST
Nautical Twilight 7:43 AM AKST 8:26 PM AKST
Astronomical Twilight 7:01 AM AKST 9:08 PM AKST
Moon 1:14 PM AKST (2/19) 5:18 AM AKST (2/19)
Length of Visible Light 11h 17m
Length of Day
10h 02m
Waxing Gibbous, 69% of the Moon is Illuminated
Feb 19
Waxing Gibbous
Feb 25
Full
Mar 4
Last Quarter
Mar 11
New
Mar 19
First Quarter

Hourly Weather History & Observations

Time (AKST) Temp. Windchill Dew Point Humidity Pressure Visibility Wind Dir Wind Speed Gust Speed Precip Events Conditions
12:43 AM 35.6 °F 25.9 °F 32.0 °F 87% 29.38 in 10.0 mi SSE 16.1 mph - N/A   Overcast
12:53 AM 36.0 °F 26.3 °F 32.0 °F 86% 29.37 in 10.0 mi SSE 16.1 mph - N/A   Overcast
1:53 AM 37.0 °F 28.9 °F 32.0 °F 82% 29.32 in 10.0 mi ESE 12.7 mph 25.3 mph N/A   Overcast
3:39 AM 35.6 °F 24.0 °F 30.2 °F 81% 29.18 in 6.0 mi SE 23.0 mph 31.1 mph 0.03 in Snow Light Snow
4:19 AM 35.6 °F 23.0 °F 30.2 °F 81% 29.10 in 9.0 mi East 27.6 mph 38.0 mph 0.01 in Rain Light Rain
4:42 AM 35.6 °F 24.0 °F 30.2 °F 81% 29.11 in 10.0 mi ESE 23.0 mph 39.1 mph 0.02 in Rain Light Rain
4:53 AM 36.0 °F 25.6 °F 32.0 °F 86% 29.09 in 5.0 mi ESE 18.4 mph 27.6 mph 0.03 in Rain Light Rain
5:53 AM 36.0 °F 26.7 °F 32.0 °F 86% 29.02 in 6.0 mi SSE 15.0 mph 28.8 mph 0.03 in Snow Light Snow
6:32 AM 35.6 °F 27.1 °F 30.2 °F 81% 28.95 in 10.0 mi South 12.7 mph - 0.01 in   Overcast
6:53 AM 36.0 °F 26.3 °F 30.9 °F 82% 28.92 in 10.0 mi SSE 16.1 mph - 0.01 in Rain Light Rain
7:53 AM 36.0 °F 25.0 °F 32.0 °F 86% 28.88 in 10.0 mi SE 20.7 mph 29.9 mph 0.01 in   Overcast
8:15 AM 35.6 °F 24.5 °F 32.0 °F 87% 28.84 in 10.0 mi SE 20.7 mph - N/A   Overcast
9:07 AM 37.4 °F 29.3 °F 33.8 °F 87% 28.83 in 4.0 mi SE 12.7 mph - 0.00 in Rain Light Rain
9:16 AM 37.4 °F 30.8 °F 33.8 °F 87% 28.83 in 6.0 mi SSE 9.2 mph - 0.00 in   Overcast
9:35 AM 37.4 °F 27.5 °F 35.6 °F 93% 28.81 in 6.0 mi SSE 18.4 mph - 0.00 in   Overcast
9:47 AM 37.4 °F 29.8 °F 35.6 °F 93% 28.82 in 9.0 mi SSE 11.5 mph - 0.00 in   Overcast
9:48 AM 37.0 °F 29.8 °F 35.1 °F 93% 28.83 in 9.0 mi SSE 10.4 mph - 0.00 in   Overcast
10:25 AM 37.4 °F 30.8 °F 35.6 °F 93% 28.81 in 10.0 mi SE 9.2 mph - N/A   Mostly Cloudy
10:53 AM 37.9 °F - 36.0 °F 93% 28.83 in 10.0 mi Calm Calm - N/A   Overcast
11:07 AM 37.4 °F 27.5 °F 35.6 °F 93% 28.83 in 10.0 mi WSW 18.4 mph 25.3 mph 0.00 in Rain Light Rain
11:28 AM 35.6 °F 23.2 °F 30.2 °F 81% 28.82 in 3.0 mi WSW 26.5 mph 31.1 mph 0.01 in Rain , Snow Light Rain
11:44 AM 35.6 °F 23.2 °F 32.0 °F 87% 28.83 in 5.0 mi WSW 26.5 mph 32.2 mph 0.02 in Rain , Snow Light Rain
11:48 AM 35.6 °F 23.0 °F 33.8 °F 93% 28.83 in 2.5 mi WSW 27.6 mph 32.2 mph 0.02 in Rain , Snow Light Rain
11:53 AM 35.1 °F 21.8 °F 33.1 °F 92% 28.84 in 2.0 mi WSW 29.9 mph 35.7 mph 0.02 in Rain , Snow Light Rain
11:57 AM 35.6 °F 23.0 °F 33.8 °F 93% 28.83 in 3.0 mi WSW 27.6 mph 35.7 mph 0.00 in Rain , Snow Light Rain
12:33 PM 33.8 °F 19.0 °F 30.2 °F 87% 28.88 in 2.0 mi West 35.7 mph 42.6 mph 0.01 in Rain , Snow Light Rain
12:36 PM 33.8 °F 18.6 °F 30.2 °F 87% 28.90 in 1.5 mi West 38.0 mph 43.7 mph 0.01 in Rain , Snow Light Rain
12:53 PM 32.0 °F 15.4 °F 28.9 °F 88% 28.93 in 1.2 mi West 42.6 mph 49.5 mph 0.01 in Rain , Snow Light Rain
1:13 PM 30.2 °F 13.1 °F 28.4 °F 93% 28.96 in 1.8 mi West 41.4 mph 54.1 mph 0.00 in Snow Light Snow
1:31 PM 30.2 °F 13.3 °F 26.6 °F 86% 28.99 in 1.5 mi West 40.3 mph 52.9 mph 0.00 in Snow Light Snow
1:53 PM 30.0 °F 13.6 °F 26.1 °F 85% 29.02 in 1.2 mi West 36.8 mph 50.6 mph 0.00 in Snow Light Snow
1:59 PM 30.2 °F 13.7 °F 26.6 °F 86% 29.02 in 0.8 mi West 38.0 mph 47.2 mph 0.00 in Snow Light Snow
2:13 PM 30.2 °F 13.9 °F 26.6 °F 86% 29.02 in 1.5 mi WNW 36.8 mph 47.2 mph 0.00 in Snow Light Snow
2:23 PM 30.2 °F 13.1 °F 24.8 °F 80% 29.03 in 2.5 mi West 41.4 mph 49.5 mph 0.00 in Snow Light Snow
3:26 PM 28.4 °F 11.2 °F 24.8 °F 86% 29.11 in 1.0 mi WNW 38.0 mph 48.3 mph 0.00 in Snow Light Snow
3:45 PM 28.4 °F 11.4 °F 23.0 °F 80% 29.12 in 3.0 mi WNW 36.8 mph 51.8 mph 0.00 in Snow Light Snow
3:53 PM 28.9 °F 11.7 °F 23.0 °F 78% 29.14 in 4.0 mi WNW 39.1 mph 48.3 mph 0.00 in Snow Light Snow
3:57 PM 28.4 °F 11.2 °F 23.0 °F 80% 29.14 in 1.8 mi WNW 38.0 mph 50.6 mph 0.00 in Snow Light Snow
4:27 PM 28.4 °F 11.2 °F 23.0 °F 80% 29.18 in 3.0 mi WNW 38.0 mph 46.0 mph 0.00 in Snow Light Snow
4:40 PM 28.4 °F 12.0 °F 24.8 °F 86% 29.19 in 1.5 mi West 33.4 mph 42.6 mph 0.00 in Snow Light Snow
4:49 PM 28.4 °F 12.0 °F 24.8 °F 86% 29.20 in 0.5 mi WNW 33.4 mph 41.4 mph 0.00 in Fog , Snow Snow
4:53 PM 28.0 °F 11.1 °F 25.0 °F 88% 29.21 in 0.5 mi WNW 35.7 mph 41.4 mph 0.00 in Fog , Snow Snow
4:57 PM 28.4 °F 11.8 °F 24.8 °F 86% 29.20 in 0.2 mi WNW 34.5 mph 41.4 mph 0.00 in Fog , Snow Snow
5:07 PM 28.4 °F 12.0 °F 24.8 °F 86% 29.20 in 0.8 mi WNW 33.4 mph 40.3 mph 0.00 in Snow Light Snow
5:29 PM 28.4 °F 11.6 °F 24.8 °F 86% 29.22 in 1.0 mi West 35.7 mph 43.7 mph 0.00 in Snow Light Snow
5:40 PM 30.2 °F 14.1 °F 24.8 °F 80% 29.22 in 3.0 mi West 35.7 mph 41.4 mph 0.00 in Snow Light Snow
5:53 PM 30.0 °F 13.8 °F 23.0 °F 75% 29.22 in 9.0 mi West 35.7 mph 41.4 mph 0.00 in Snow Light Snow
6:53 PM 30.0 °F 14.9 °F 25.0 °F 82% 29.25 in 10.0 mi West 29.9 mph 33.4 mph 0.00 in   Overcast
7:53 PM 30.9 °F 17.2 °F 26.1 °F 82% 29.24 in 10.0 mi West 25.3 mph - 0.00 in   Overcast
8:09 PM 30.2 °F 16.5 °F 26.6 °F 86% 29.23 in 10.0 mi West 24.2 mph - N/A   Overcast
8:53 PM 30.9 °F 21.7 °F 27.0 °F 85% 29.25 in 10.0 mi WSW 11.5 mph - N/A   Mostly Cloudy
9:00 PM 30.2 °F 21.3 °F 26.6 °F 86% 29.25 in 10.0 mi West 10.4 mph - N/A   Mostly Cloudy
9:53 PM 30.9 °F 24.3 °F 27.0 °F 85% 29.23 in 10.0 mi WSW 6.9 mph - N/A   Overcast
10:53 PM 30.9 °F 22.8 °F 27.0 °F 85% 29.17 in 10.0 mi West 9.2 mph - N/A   Overcast
11:15 PM 30.2 °F 26.7 °F 26.6 °F 86% 29.15 in 10.0 mi West 3.5 mph - N/A   Mostly Cloudy
11:53 PM 30.0 °F - 25.0 °F 82% 29.12 in 10.0 mi Calm Calm - N/A   Mostly Cloudy